Regional Weather Roundup
Issued by NWS Cleveland, OH

Home | Current Version | Previous Version | Text Only | Print | Product List | Glossary Off
Versions: 1 2 3 4 5 6 7 8 9 10 11 12 13 14 15 16 17 18 19 20 21 22 23 24 25 26 27 28 29 30 31 32 33 34 35 36 37 38 39 40 41 42 43 44 45 46 47 48 49 50

000
ASUS41 KCLE 282102
RWRCLE
OHIO REGIONAL WEATHER ROUNDUP
NATIONAL WEATHER SERVICE CLEVELAND, OH
500 PM EDT WED JUN 28 2017

NOTE: "FAIR" INDICATES FEW OR NO CLOUDS BELOW 12,000 FEET WITH NO
SIGNIFICANT WEATHER AND/OR OBSTRUCTIONS TO VISIBILITY.

OHZ001>008-015>018-024>027-034-035-043-044-282200-
   NORTHWEST OHIO

CITY           SKY/WX    TMP DP  RH WIND       PRES   REMARKS
DEFIANCE       MOSUNNY   76  51  41 S10G21    30.01F
FINDLAY        PTSUNNY   79  50  36 S12       30.04F
TOLEDO EXPRESS CLOUDY    76  53  44 S9        30.02F
TOLEDO EXEC    MOSUNNY   78  49  35 SW12G21   30.04F
LIMA           PTSUNNY   76  51  41 SW10G21   30.05F
$$

OHZ009>014-019>023-028>033-038-089-282200-
   NORTHEAST OHIO

CITY           SKY/WX    TMP DP  RH WIND       PRES   REMARKS
CLE-HOPKINS    CLOUDY    79  50  36 S16       30.08F
CLE-LAKEFRONT  MOSUNNY   79  49  34 S13G20    30.05F
CUY CO. ARPT   PTSUNNY   77  52  41 S12       30.08F
LORAIN-ELYRIA  MOSUNNY   75  46  35 SW13      30.07F
ASHTABULA      CLOUDY    74  50  42 S10       30.10F
AKRON-CANTON   CLOUDY    76  50  40 SW15      30.11F
WOOSTER        CLOUDY    75  50  41 SW14      30.10F
MANSFIELD      PTSUNNY   76  51  41 SW10      30.10F
YOUNGSTOWN     CLOUDY    73  49  42 SW12      30.11F
$$

OHZ042-051>053-060>062-070>072-077>081-282200-
  SOUTHWEST OHIO

CITY           SKY/WX    TMP DP  RH WIND       PRES   REMARKS
CINC-COVINGTON CLOUDY    79  57  46 S10       30.07F
CINC-LUNKEN    SUNNY     78  57  48 SW10      30.07F
HAMILTON       CLOUDY    82  56  40 VRB6      30.07F
DAYTON         CLOUDY    78  53  41 S13       30.07F
WRIGHT-PAT AFB NOT AVBL
DAYTON GENERAL MOSUNNY   79  54  41 SW16      30.07F
WILMINGTON     SUNNY     78  56  46 SW12      30.09F
$$

OHZ036-037-039>041-045>050-054>059-063>069-073>076-082>088-282200-
  CENTRAL AND SOUTHEAST OHIO

CITY           SKY/WX    TMP DP  RH WIND       PRES   REMARKS
COLUMBUS       PTSUNNY   78  52  40 S12G20    30.09F
OSU AIRPORT    MOSUNNY   78  53  41 S15       30.08F
BOLTON FIELD   SUNNY     79  52  38 S13       30.10F
RICKENBACK AFB MOSUNNY   78  53  42 S12       30.09F
NEWARK         CLOUDY    77  47  34 S10       30.10F
MARION         PTSUNNY   77  50  38 S16       30.09F
LANCASTER      MOSUNNY   75  53  46 SW8       30.11F
ZANESVILLE     CLOUDY    76  52  43 SW6       30.11F
NEW PHILLY     NOT AVBL
$$



USA.gov is the U.S. government's official web portal to all federal, state and local government web resources and services.